Location: Derby
(52.9213°N, 1.4761°W)
Time: 17:45:45
(UTC+01:00)

Tiros 1 - Pass Details

Date: 26 May 2025
Orbit: 620 x 651 km, 48.4° (Epoch: 13 June)

Event Time Altitude Azimuth Distance (km) Brightness Sun altitude
Rises 15:43:15 0° 206° (SSW) 2,881 11.0 46.0°
Reaches altitude 10° 15:46:11 10° 187° (S) 1,980 10.2 45.6°
Maximum altitude 15:49:10 17° 145° (SE) 1,552 9.3 45.2°
Drops below altitude 10° 15:52:11 10° 104° (ESE) 1,990 9.4 44.8°
Sets 15:55:08 0° 85° (E) 2,904 10.1 44.4°
